Showing default

IRIDE-MS2-HEO-15, 68987

Orbit data source: Space-Track

IRIDE-MS2-HEO-15, 68987 is an Italian payload satellite in SSO that was launched on Sun, 03 May 2026 UTC via an FALCON 9 launch vehicle from the Air Force Western Test Range (AFWTR). Payload-class satellites include a variety of spacecraft equipped with specific instruments for various scientific and technological missions. These include communications satellites like Starlink; space stations such as the ISS; scientific satellites like the Hubble; Earth observation satellites from companies like Planet Labs, Umbra, and HawkEye 360; GPS; miniature CubeSats for education and research; and military/defense satellites.

Loading next visibility...
Identifier
68987, 2026-100H
Orbit
SSO
Country
Flag of ITIT
Related business
Manufacturer
ArgoTec
Mission
Operational Civil Imaging
Bus & Motor
HAWK, Unknown motor
Mass
65 kg wet, 65 kg dry
Launch date (UTC)
2026-05-03 (5 months ago)
Launch vehicle
FALCON 9
Launch site
Air Force Western Test Range (AFWTR)
Object type
Payload
Rocket body
Debris
Shape & HBR
Box + 2 Pan, 3.0 m
Radar Cross Section
0.683 m², Medium (>0.1 m² and < 1m²)

Expand to show TLE details & history
Last TLE update: 10 hours ago

TLE from 10 hours ago
0 IRIDE-MS2-HEO-15
1 68987U 26100H   26266.12804866  .00001070  00000-0  11093-3 0  9999
2 68987  97.7199 161.6706 0002395 126.1872 233.9569 14.92025393 21306
Epoch: 2026-09-23T03:04Z
TLE epoch observation values (Epoch: 2026-09-23T03:04:23.404Z)
Latitude
0.00002°
Longitude
113.58946°
Altitude
595.647 km
Speed
7.561 km/s
True Right ascension
10h 46m 40s
True Declination
0° 00' 00"
Sunlit
Object was in daylight at epoch
Visualization orbit readout
Latitude
Unknown
Longitude
Unknown
Altitude
Unknown
Speed
Unknown
Apparent Right ascension
Unknown
Apparent Declination
Unknown
Sunlit
N/A
Visualization observer readout
Local Sidereal Time
06:28:40
Azimuth
Unknown
Elevation
Unknown
Doppler factor
Unknown
Orbital elements
Apogee altitude
590.306 km
Perigee altitude
586.969 km
Semi-major axis
6,966.775 km
Eccentricity
0.00024
Inclination
97.7199°
RAAN
161.6706°
Arg. of periapsis
126.1872°
True anomaly
233.93471°
Mean anomaly
233.9569°
Eccentric anomaly
233.94581°
Mean motion
3.73246 °/min
Orbital period
96.45 mins
BSTAR
0.00011093
Loading maneuver chart data...
Computing Atmospheric mass density...
Loading historical data...
Loading historical data...
Loading historical data...
Loading historical data...
Loading historical data...
Loading historical data...
Loading historical data...

Documentation

Showing up to 5 results
|